Погода в Айтеке-Би

Казахстан     45°50′49″N   62°09′04″E
темп.,
°C
ветер,
м/с
пор.,
м/с
влажн.,
%
обл.,
%
осадки,
мм/ч
давл.,
гПа
погр.,
м
23 мая, пн
пн2323:00+16ю5954100 0.0 1015359
02:00+16ю61247100 0.0 1014379
05:00+17ю6124262 0.0 1014381
08:00+20ю793590 0.0 1015644
11:00+24ююв7726100 0.0 10141462
14:00+26ююв78205 0.0 10122411
17:00+28ююв78170 0.0 10102590
20:00+26ююв57180 0.0 1009225
24 мая, вт
вт2423:00+23юв592264 0.0 1008161
02:00+22вюв6112368 0.0 1007205
05:00+19вюв510261 0.0 1008170
08:00+23юв811286 0.0 1008437
11:00+26вюв7717100 0.0 10081460
14:00+29юв671494 0.0 10061913
17:00+29юв7816100 0.0 10041941
20:00+28ююв4618100 0.0 100590
25 мая, ср
ср2523:00+26вюв4823100 0.0 1004158
02:00+24вюв510295 0.0 1003201
05:00+22вюв511330 0.0 1002162
08:00+27юв814210 0.0 1002681
11:00+31ююз1012210 0.0 10021519
14:00+27ююз1315340 0.0 10031112
17:00+27юз1214350 0.0 10031234
20:00+24зюз1216440 0.0 1005957
26 мая, чт
чт2623:00+22з1115500 0.0 1009805
02:00+18зсз710610 0.0 1011761
05:00+15зсз810655 0.0 1013796
08:00+17сз911420 0.0 10151121
11:00+21сз882919 0.0 10171982
14:00+23сз88250 0.0 10172198
17:00+23зсз6623100 0.0 10172361
20:00+21зсз5529100 0.0 1017734
27 мая, пт
пт2723:00+18з5846100 0.0 1018239
02:00+16з3856100 0.0 1018242
05:00+15сз2267100 0.0 101822
08:00+19юв22515 0.0 1018363
11:00+23ююз343195 0.0 10172680
14:00+24зюз4528100 0.0 10162787
17:00+24з75245 0.0 10162405
20:00+21зсз56305 0.0 1016527